GW7291 Weather Reports


time (UTC)temp
F
wind
direction
speed
knots
gust
knots
rain 1hr
in
rain 24hr
in
rain mn
in
humidity
%
barometer
mb
20260506024744 49 29 7.8 8.7 0.00 0.00 0.00 83 1012.9
20260506024241 49 23 6.1 11.3 0.00 0.00 0.00 83 1013.1
20260506023737 49 19 2.6 3.5 0.00 0.00 0.00 85 1013.0
20260506023234 48 323 3.5 7.0 0.00 0.00 0.00 86 1012.9
20260506022731 48 345 4.3 7.8 0.00 0.00 0.00 86 1012.7
20260506022229 48 5 2.6 8.7 0.00 0.00 0.00 86 1012.8
20260506021726 48 48 4.3 6.1 0.00 0.00 0.00 86 1012.6
20260506021223 48 57 2.6 7.8 0.00 0.00 0.00 86 1012.4
20260506020720 48 24 3.5 8.7 0.00 0.00 0.00 86 1012.5
20260506020218 48 26 4.3 7.0 0.00 0.00 0.00 87 1012.4
20260506015715 48 351 3.5 7.0 0.00 0.00 0.00 87 1012.6
20260506015213 48 331 3.5 6.1 0.00 0.00 0.00 87 1012.4
20260506014710 48 38 3.5 8.7 0.00 0.00 0.00 87 1012.2
20260506014205 48 344 3.5 7.8 0.00 0.00 0.00 87 1012.2
20260506013703 48 38 2.6 5.2 0.00 0.00 0.00 87 1012.2
20260506013200 48 2 3.5 7.8 0.00 0.00 0.00 87 1012.3
20260506012656 48 342 2.6 6.1 0.00 0.00 0.00 87 1012.1
20260506012153 49 31 4.3 6.1 0.00 0.00 0.00 86 1011.9
20260506011651 49 350 5.2 7.0 0.00 0.00 0.00 86 1012.1
20260506011147 49 348 3.5 7.8 0.00 0.00 0.00 85 1011.7
20260506010646 49 35 5.2 9.6 0.00 0.00 0.00 84 1011.7
20260506010142 49 54 5.2 9.6 0.00 0.00 0.00 84 1011.6
20260506005639 49 348 4.3 7.8 0.00 0.00 0.00 84 1011.1
20260506005136 49 35 3.5 6.1 0.00 0.00 0.00 84 1010.9
20260506004632 49 318 1.7 9.6 0.00 0.00 0.00 84 1010.5
20260506004130 49 19 3.5 6.1 0.00 0.00 0.00 84 1010.8
20260506003626 49 25 5.2 11.3 0.00 0.00 0.00 84 1010.8
20260506003122 49 331 5.2 7.8 0.00 0.00 0.00 84 1010.7
20260506002618 49 52 2.6 9.6 0.00 0.00 0.00 84 1010.8
20260506002114 50 41 6.1 8.7 0.00 0.00 0.00 83 1010.9
20260506001610 50 336 3.5 7.8 0.00 0.00 0.00 83 1010.4
20260506001108 50 27 6.1 7.8 0.00 0.00 0.00 83 1010.7
20260506000605 50 19 4.3 9.6 0.00 0.00 0.00 82 1010.6
20260505235600 50 12 5.2 9.6 0.00 0.00 0.00 82 1010.4
20260505235057 50 20 4.3 7.8 0.00 0.00 0.00 81 1010.7
20260505234554 50 48 5.2 11.3 0.00 0.00 0.00 81 1010.8
20260505234050 50 25 3.5 6.1 0.00 0.00 0.00 81 1010.7
20260505233548 50 46 4.3 9.6 0.00 0.00 0.00 81 1010.8
20260505233046 51 348 6.1 7.0 0.00 0.00 0.00 80 1010.9
20260505232543 51 60 3.5 9.6 0.00 0.00 0.00 79 1010.7
20260505232041 51 336 8.7 13.9 0.00 0.00 0.00 79 1010.8
20260505231537 51 34 4.3 7.8 0.00 0.00 0.00 79 1010.4
20260505231036 51 26 1.7 7.0 0.00 0.00 0.00 79 1010.2
20260505230533 51 30 3.5 7.8 0.00 0.00 0.00 78 1010.3
20260505230029 51 45 2.6 5.2 0.00 0.00 0.00 78 1010.5
20260505225526 51 1 2.6 8.7 0.00 0.00 0.00 78 1010.4
20260505225022 51 0 4.3 8.7 0.00 0.00 0.00 78 1010.1
20260505224519 51 347 7.0 12.2 0.00 0.00 0.00 77 1010.1
20260505224016 51 5 7.0 11.3 0.00 0.00 0.00 77 1009.9
20260505223514 51 27 5.2 13.0 0.00 0.00 0.00 77 1010.2
20260505223010 52 346 9.6 12.2 0.00 0.00 0.00 77 1010.1
20260505222506 52 1 6.1 11.3 0.00 0.00 0.00 77 1009.8
20260505222002 52 345 5.2 11.3 0.00 0.00 0.00 77 1009.6
20260505221500 52 18 7.0 13.0 0.00 0.00 0.00 77 1009.6
20260505220956 52 25 4.3 9.6 0.00 0.00 0.00 77 1010.1
20260505220453 52 50 2.6 7.0 0.00 0.00 0.00 78 1009.9
20260505215951 52 57 3.5 8.7 0.00 0.00 0.00 77 1010.0
20260505215449 52 21 6.1 9.6 0.00 0.00 0.00 77 1009.6
20260505214946 52 39 4.3 7.8 0.00 0.00 0.00 78 1008.8
20260505214444 52 340 4.3 11.3 0.00 0.00 0.00 77 1009.2
20260505213941 53 30 7.0 12.2 0.00 0.00 0.00 77 1009.3
20260505213439 52 29 7.8 13.9 0.00 0.00 0.00 77 1009.1
20260505212935 52 26 7.8 9.6 0.00 0.00 0.00 77 1009.4
20260505212432 53 58 8.7 12.2 0.00 0.00 0.00 77 1009.5
20260505211928 53 44 7.8 15.6 0.00 0.00 0.00 77 1009.0
20260505211426 53 345 5.2 13.9 0.00 0.00 0.00 76 1008.9
20260505210922 53 30 3.5 14.8 0.00 0.00 0.00 77 1008.8
20260505210420 53 34 5.2 8.7 0.00 0.00 0.00 78 1009.1
20260505205916 53 38 4.3 7.8 0.00 0.00 0.00 78 1009.7
20260505205415 53 2 4.3 9.6 0.00 0.00 0.00 77 1009.7
20260505204911 53 18 8.7 12.2 0.00 0.00 0.00 77 1009.7
20260505204409 53 26 5.2 13.9 0.00 0.00 0.00 77 1009.5
20260505203906 53 9 6.1 8.7 0.00 0.00 0.00 77 1009.3
20260505203402 53 329 7.0 13.0 0.00 0.00 0.00 77 1009.2
20260505202859 53 0 7.0 11.3 0.00 0.00 0.00 77 1009.1
20260505202355 53 30 6.1 12.2 0.00 0.00 0.00 78 1009.1
20260505201851 53 54 2.6 11.3 0.00 0.00 0.00 78 1008.8
20260505201349 53 354 3.5 8.7 0.00 0.00 0.00 78 1008.9
20260505200847 53 46 9.6 13.0 0.00 0.00 0.00 78 1008.6
20260505200344 54 340 7.8 16.5 0.00 0.00 0.00 78 1008.8
20260505195839 53 343 7.0 13.0 0.00 0.00 0.00 78 1008.9
20260505195337 54 347 5.2 9.6 0.00 0.00 0.00 78 1008.5
20260505194834 54 39 7.8 13.0 0.00 0.00 0.00 78 1009.0
20260505194331 54 352 7.8 11.3 0.00 0.00 0.00 78 1008.8
20260505193831 53 5 8.7 12.2 0.00 0.00 0.00 79 1009.0
20260505193330 53 36 8.7 13.9 0.00 0.00 0.00 79 1008.9
20260505192827 53 18 11.3 14.8 0.00 0.00 0.00 82 1008.9
20260505192325 53 27 11.3 13.9 0.00 0.00 0.00 83 1008.8
20260505191823 53 0 5.2 9.6 0.00 0.00 0.00 84 1008.5
20260505191321 53 327 3.5 7.0 0.00 0.00 0.00 84 1008.5
20260505190817 53 44 6.1 11.3 0.00 0.00 0.00 84 1008.9
20260505190313 53 348 2.6 8.7 0.00 0.00 0.00 84 1008.6
20260505185809 53 40 5.2 9.6 0.00 0.00 0.00 84 1008.4
20260505185305 53 12 8.7 13.9 0.00 0.00 0.00 84 1008.6
20260505184801 54 347 7.0 11.3 0.00 0.00 0.00 84 1008.4
20260505184259 54 322 11.3 18.2 0.00 0.00 0.00 84 1008.4
20260505183755 54 339 7.8 13.0 0.00 0.00 0.00 84 1008.3
20260505183253 54 12 9.6 12.2 0.00 0.00 0.00 84 1008.1
20260505182749 54 28 9.6 13.9 0.00 0.00 0.00 84 1008.2
20260505182246 54 62 5.2 8.7 0.00 0.00 0.00 84 1008.2
20260505181742 55 49 4.3 11.3 0.00 0.00 0.00 84 1008.0
20260505181240 55 47 3.5 12.2 0.00 0.00 0.00 83 1007.9
20260505180736 55 316 6.1 13.9 0.00 0.00 0.00 83 1007.8
20260505180233 55 56 11.3 14.8 0.00 0.00 0.00 83 1007.7
20260505175729 55 348 6.1 13.0 0.00 0.00 0.00 83 1007.5
20260505175226 55 22 5.2 14.8 0.00 0.00 0.00 83 1007.9
20260505174723 55 45 10.4 16.5 0.00 0.00 0.00 83 1007.4
20260505174220 55 339 4.3 14.8 0.00 0.00 0.00 83 1007.3
20260505173716 55 66 7.0 9.6 0.00 0.00 0.00 83 1007.1
20260505173213 55 8 4.3 13.0 0.00 0.00 0.00 84 1007.4
20260505172710 55 19 7.0 9.6 0.00 0.00 0.00 84 1007.2
20260505172207 55 21 10.4 13.0 0.00 0.00 0.00 85 1007.3
20260505171706 55 14 7.8 12.2 0.00 0.00 0.00 85 1007.2
20260505171204 55 47 4.3 12.2 0.00 0.00 0.00 85 1007.3
20260505170700 55 358 9.6 12.2 0.00 0.00 0.00 85 1007.3
20260505170157 55 18 5.2 12.2 0.00 0.00 0.00 86 1007.2
20260505165658 55 22 4.3 9.6 0.00 0.00 0.00 85 1007.0
20260505165154 55 318 6.1 9.6 0.00 0.00 0.00 85 1006.9
20260505164649 55 24 7.0 13.0 0.00 0.00 0.00 86 1006.9
20260505164147 56 3 6.1 9.6 0.00 0.00 0.00 86 1006.4
20260505163645 55 25 5.2 7.8 0.00 0.00 0.00 86 1006.3
20260505163143 55 0 5.2 14.8 0.00 0.00 0.00 87 1006.3
20260505162640 55 333 7.8 11.3 0.00 0.00 0.00 87 1006.3
20260505162138 55 69 5.2 12.2 0.00 0.00 0.00 88 1006.0
20260505161634 56 18 10.4 13.0 0.00 0.00 0.00 88 1005.7
20260505161132 55 29 8.7 13.0 0.00 0.00 0.00 88 1005.3
20260505160629 56 5 7.0 12.2 0.00 0.00 0.00 88 1005.3
20260505160127 56 337 7.8 12.2 0.00 0.00 0.00 88 1005.6
20260505153107 59 25 3.5 13.0 0.00 0.00 0.00 88 1004.6
20260505152603 60 356 7.8 13.9 0.00 0.00 0.00 88 1004.5
20260505152058 60 33 6.1 9.6 0.00 0.00 0.00 88 1004.1
20260505151554 60 354 8.7 11.3 0.00 0.00 0.00 88 1004.2
20260505151052 60 19 7.0 15.6 0.00 0.00 0.00 88 1004.2
20260505150548 61 15 4.3 13.0 0.00 0.00 0.00 88 1003.9
20260505140513 67 41 2.6 3.5 0.00 0.00 0.00 89 1002.4
20260505124926 64 56 0.0 5.2 0.00 0.00 0.00 93 1001.8
20260505124423 64 32 3.5 7.8 0.00 0.00 0.00 93 1001.9
20260505123919 64 62 2.6 5.2 0.00 0.00 0.00 93 1001.9
20260505123416 64 39 1.7 6.1 0.00 0.00 0.00 93 1001.9
20260505122911 64 123 2.6 7.0 0.00 0.00 0.00 93 1001.7
20260505122409 64 48 2.6 3.5 0.00 0.00 0.00 93 1001.8
20260505121906 64 116 1.7 3.5 0.00 0.00 0.00 93 1001.5
20260505121403 64 36 4.3 8.7 0.00 0.00 0.00 93 1001.5
20260505120859 64 40 3.5 7.0 0.00 0.00 0.00 92 1001.7
20260505120355 64 46 1.7 3.5 0.00 0.00 0.00 92 1001.5
20260505115854 64 37 0.9 5.2 0.00 0.00 0.00 92 1001.4
20260505115351 65 40 1.7 7.8 0.00 0.00 0.00 91 1001.6
20260505114849 65 85 3.5 5.2 0.00 0.00 0.00 91 1001.2
20260505114345 65 36 3.5 6.1 0.00 0.00 0.00 90 1001.2
20260505113842 66 42 1.7 5.2 0.00 0.00 0.00 89 1001.0
20260505113338 66 8 1.7 2.6 0.00 0.00 0.00 88 1000.8
20260505112834 66 64 0.9 2.6 0.00 0.00 0.00 88 1000.6
20260505112332 67 16 3.5 3.5 0.00 0.00 0.00 86 1000.7
20260505111827 67 30 1.7 3.5 0.00 0.00 0.00 85 1000.6
20260505111323 68 66 0.0 0.0 0.00 0.00 0.00 85 1000.5
20260505110819 68 41 0.9 0.9 0.00 0.00 0.00 84 1000.7
20260505110317 69 32 0.0 0.9 0.00 0.00 0.00 82 1000.8
20260505101751 70 162 0.0 0.0 0.00 0.00 0.00 80 999.5
20260505101247 71 48 0.9 2.6 0.00 0.00 0.00 78 999.5
20260505100743 71 200 0.0 0.9 0.00 0.00 0.00 78 999.4
20260505100240 71 214 0.9 1.7 0.00 0.00 0.00 77 999.2
20260505095735 71 124 0.9 2.6 0.00 0.00 0.00 77 998.9
20260505095234 72 164 2.6 6.1 0.00 0.00 0.00 77 999.1
20260505094729 72 156 3.5 7.8 0.00 0.00 0.00 77 998.8
20260505094226 72 180 3.5 6.1 0.00 0.00 0.00 77 998.8
20260505093722 72 204 5.2 7.8 0.00 0.00 0.00 77 998.6
20260505093220 72 157 4.3 7.0 0.00 0.00 0.00 77 998.5
20260505092716 72 200 5.2 7.8 0.00 0.00 0.00 77 998.9
20260505092215 72 181 4.3 9.6 0.00 0.00 0.00 77 998.6
20260505091712 72 176 5.2 7.0 0.00 0.00 0.00 77 998.6
20260505091210 71 162 4.3 7.0 0.00 0.00 0.00 77 999.0
20260505090707 72 156 4.3 6.1 0.00 0.00 0.00 77 998.8
20260505090205 72 189 4.3 7.0 0.00 0.00 0.00 77 998.7
20260505085702 72 178 5.2 7.0 0.00 0.00 0.00 77 998.7
20260505085200 72 176 4.3 7.8 0.00 0.00 0.00 77 998.8
20260505084657 71 176 5.2 8.7 0.00 0.00 0.00 77 998.9
20260505084156 71 197 6.1 8.7 0.00 0.00 0.00 78 999.1
20260505083653 71 148 4.3 7.0 0.00 0.00 0.00 78 998.8
20260505083149 71 196 5.2 8.7 0.00 0.00 0.00 78 999.1
20260505082645 71 176 6.1 8.7 0.00 0.00 0.00 77 998.9
20260505082143 72 173 5.2 9.6 0.00 0.00 0.00 77 999.1
20260505081638 71 183 6.1 8.7 0.00 0.00 0.00 78 999.3
20260505081136 71 193 4.3 7.0 0.00 0.00 0.00 78 999.2
20260505080633 71 191 5.2 9.6 0.00 0.00 0.00 78 999.2
20260505080129 71 138 7.0 9.6 0.00 0.00 0.00 78 999.3
20260505075625 71 217 5.2 7.8 0.00 0.00 0.00 78 999.5
20260505075122 71 173 7.0 8.7 0.00 0.00 0.00 78 999.4
20260505074619 71 180 5.2 7.8 0.00 0.00 0.00 78 999.2
20260505074116 71 128 5.2 7.8 0.00 0.00 0.00 78 999.6
20260505073614 71 160 5.2 8.7 0.00 0.00 0.00 78 999.7
20260505073112 71 170 5.2 7.8 0.00 0.00 0.00 78 999.6
20260505072607 71 149 5.2 8.7 0.00 0.00 0.00 78 999.7
20260505072104 71 147 5.2 8.7 0.00 0.00 0.00 78 999.8
20260505071559 71 152 4.3 8.7 0.00 0.00 0.00 77 999.9
20260505071057 71 172 6.1 8.7 0.00 0.00 0.00 78 1000.1
20260505070554 71 200 5.2 7.8 0.00 0.00 0.00 78 1000.1
20260505070050 71 122 4.3 7.8 0.00 0.00 0.00 77 1000.2
20260505065546 71 190 5.2 7.8 0.00 0.00 0.00 77 1000.1
20260505065043 71 162 5.2 7.8 0.00 0.00 0.00 78 1000.5
20260505064540 71 135 6.1 8.7 0.00 0.00 0.00 77 1000.5
20260505064038 71 197 7.0 9.6 0.00 0.00 0.00 77 1000.4
20260505063535 71 180 7.0 8.7 0.00 0.00 0.00 77 1000.6
20260505063031 71 194 5.2 9.6 0.00 0.00 0.00 77 1000.6
20260505062528 71 185 4.3 7.8 0.00 0.00 0.00 78 1000.6
20260505062025 71 160 3.5 9.6 0.00 0.00 0.00 77 1000.8
20260505061523 71 175 4.3 7.8 0.00 0.00 0.00 77 1000.6
20260505061020 71 178 5.2 7.8 0.00 0.00 0.00 78 1000.8
20260505060518 71 170 6.1 7.8 0.00 0.00 0.00 78 1000.8
20260505060014 71 123 6.1 9.6 0.00 0.00 0.00 77 1000.7
20260505055509 71 178 4.3 7.0 0.00 0.00 0.00 77 1001.1
20260505055006 71 182 6.1 7.8 0.00 0.00 0.00 77 1000.9
20260505054504 72 174 4.3 8.7 0.00 0.00 0.00 76 1000.9
20260505054002 71 196 7.0 9.6 0.00 0.00 0.00 76 1000.8
20260505053459 72 181 5.2 7.8 0.00 0.00 0.00 76 1001.0
20260505052955 72 174 6.1 7.8 0.00 0.00 0.00 76 1000.8
20260505052453 72 164 7.8 9.6 0.00 0.00 0.00 76 1001.2
20260505051949 72 142 5.2 8.7 0.00 0.00 0.00 76 1001.1
20260505051446 72 189 5.2 7.0 0.00 0.00 0.00 76 1001.3
20260505050945 72 137 5.2 7.8 0.00 0.00 0.00 76 1001.4
20260505050443 72 159 5.2 7.8 0.00 0.00 0.00 75 1001.2
20260505041410 73 188 4.3 7.8 0.00 0.00 0.00 74 1001.9
20260505040907 73 199 5.2 7.0 0.00 0.00 0.00 74 1002.0
20260505040405 73 194 4.3 6.1 0.00 0.00 0.00 74 1001.8
20260505035901 73 191 4.3 9.6 0.00 0.00 0.00 73 1002.0
20260505035357 73 137 4.3 7.0 0.00 0.00 0.00 73 1002.0
20260505034855 73 194 6.1 11.3 0.00 0.00 0.00 72 1002.0
20260505034351 74 182 6.1 11.3 0.00 0.00 0.00 72 1001.7
20260505033848 74 186 7.0 11.3 0.00 0.00 0.00 72 1001.8
20260505033345 74 168 3.5 9.6 0.00 0.00 0.00 72 1001.8
20260505032843 74 172 3.5 7.8 0.00 0.00 0.00 72 1001.7
20260505032339 74 177 7.0 9.6 0.00 0.00 0.00 71 1001.7
20260505031837 74 178 5.2 7.8 0.00 0.00 0.00 71 1001.7
20260505031333 74 163 6.1 8.7 0.00 0.00 0.00 71 1001.6
20260505030831 74 177 5.2 8.7 0.00 0.00 0.00 71 1001.6
20260505030326 75 151 5.2 8.7 0.00 0.00 0.00 70 1001.7
20260505025822 75 141 6.1 7.8 0.00 0.00 0.00 70 1001.5
20260505025320 75 153 7.0 7.8 0.00 0.00 0.00 70 1001.5
20260505024818 75 185 7.0 9.6 0.00 0.00 0.00 70 1001.4